This is the latest recevied weather packets stored in our database for station/object KM4CBK. If no packets are shown the sender has not sent any weather packets the latest 10 day(s).
| Time | Temp. | Humidity | Pressure | Rain* | Wind** | Luminosity | Snow |
|---|---|---|---|---|---|---|---|
| 1778023404 | 25.56° C | 60% | 1011 hPa | 0 mm | - | 34 W/m² | - |
| 1778023100 | 25.56° C | 61% | 1011.4 hPa | 0 mm | - | 55 W/m² | - |
| 1778022798 | 25.56° C | 59% | 1011.2 hPa | 0 mm | - | 48 W/m² | - |
| 1778022496 | 26.11° C | 61% | 1011.2 hPa | 0 mm | - | 61 W/m² | - |
| 1778022193 | 26.11° C | 61% | 1011.1 hPa | 0 mm | - | 91 W/m² | - |
| 1778021889 | 26.11° C | 60% | 1011.4 hPa | 0 mm | - | 84 W/m² | - |
| 1778021587 | 26.11° C | 60% | 1011.3 hPa | 0 mm | - | 65 W/m² | - |
| 1778021281 | 26.11° C | 59% | 1011.1 hPa | 0 mm | - | 71 W/m² | - |
| 1778020979 | 25.56° C | 59% | 1011.4 hPa | 0 mm | - | 73 W/m² | - |
| 1778020677 | 26.11° C | 60% | 1011.4 hPa | 0 mm | - | 72 W/m² | - |
| 1778020373 | 26.11° C | 58% | 1011.2 hPa | 0 mm | - | 83 W/m² | - |
| 1778020069 | 26.11° C | 57% | 1011 hPa | 0 mm | - | 92 W/m² | - |
| 1778019766 | 26.11° C | 59% | 1011.3 hPa | 0 mm | - | 97 W/m² | - |
| 1778019463 | 26.11° C | 58% | 1011.3 hPa | 0 mm | - | 83 W/m² | - |
| 1778019160 | 26.67° C | 55% | 1011.3 hPa | 0 mm | - | 100 W/m² | - |
| 1778018856 | 26.67° C | 55% | 1011.1 hPa | 0 mm | - | 130 W/m² | - |
| 1778018553 | 27.22° C | 55% | 1011.2 hPa | 0 mm | - | 132 W/m² | - |
| 1778018252 | 26.67° C | 55% | 1011.3 hPa | 0 mm | - | 138 W/m² | - |
| 1778017949 | 26.67° C | 56% | 1011.2 hPa | 0 mm | - | 110 W/m² | - |
| 1778017647 | 26.67° C | 55% | 1011.4 hPa | 0 mm | - | 91 W/m² | - |
| 1778017344 | 26.67° C | 55% | 1011.5 hPa | 0 mm | - | 64 W/m² | - |
| 1778017041 | 27.22° C | 54% | 1011.6 hPa | 0 mm | - | 72 W/m² | - |
| 1778016739 | 27.78° C | 53% | 1011.3 hPa | 0 mm | - | 98 W/m² | - |
| 1778016434 | 27.22° C | 53% | 1011.4 hPa | 0 mm | - | 191 W/m² | - |
| 1778016132 | 27.78° C | 52% | 1011.5 hPa | 0 mm | - | 102 W/m² | - |
* Rain latest hour (hover to see other rain measurements)
** Current wind speed in m/s (hover to see current wind gust speed)